Weather in Subutak

Russia / Chelyabinsk Oblast     53°14′05″N   59°34′27″E
temp.,
°C
wind,
m/s
gust,
m/s
humid.,
%
clouds,
%
prec.,
mm/h
press.,
hPa
HPBL,
m
13 june, sun
sun1323:00+18ese71541100 0.0 1019436
02:00+16ese61439100 0.0 1020334
05:00+15se41245100 0.0 1021284
08:00+15se3956100 0.0 1022285
11:00+22sse6833100 0.0 10221278
14:00+24se6827100 0.0 10212088
17:00+24sse4734100 0.0 10211408
20:00+19nnw4552100 0.0 102175
14 june, mon
mon1423:00+16e455610 0.0 102274
02:00+15sse4104962 0.0 1022158
05:00+15sse374779 0.0 1023106
08:00+19s4104856 0.0 1024394
11:00+24s683798 0.0 10231175
14:00+26s56285 0.0 10222201
17:00+27s56275 0.0 10212488
20:00+23s33490 0.0 102149
15 june, tue
tue1523:00+19s22475 0.0 102115
02:00+17ssw225111 0.0 102116
05:00+16s22565 0.0 102115
08:00+21ssw34505 0.0 1021242
11:00+26ssw46385 0.0 10201395
14:00+28sw453140 0.0 10182844
17:00+29wsw342844 0.0 10172864
20:00+26ssw114453 0.0 101612
16 june, wed
wed1623:00+21ssw224897 0.0 101712
02:00+21e224991 0.1 101612
05:00+20se225162 0.1 101620
08:00+21sse235496 0.0 1017108
11:00+27ssw45365 0.0 1016837
14:00+31ssw452411 0.0 10153570
17:00+30w452743 0.0 10142623
20:00+22nne47605 0.1 1016193
17 june, thu
thu1723:00+22ssw224296 0.1 101518
02:00+18sw22695 0.3 101416
05:00+17ssw22715 0.5 101414
08:00+22ssw355745 0.0 1012271
11:00+27ssw574095 0.0 1011610
14:00+30ssw683296 0.0 10091891
17:00+31sw710327 0.0 10063426
20:00+26w6114627 0.0 1006433